Location: Dötzum
(52.0808°N, 9.8063°E)
Time: 04:43:21
(UTC+00:00)

Cosmos 304 Rocket - Pass Details

Date: 27 May 2022
Orbit: 679 x 686 km, 74.0° (Epoch: 26 June)

Event Time Altitude Azimuth Distance (km) Brightness Sun altitude
Exits shadow 00:15:46 25° 178° (S) 1,365 4.7 -15.6°
Maximum altitude 00:18:23 57° 109° (ESE) 810 4.1 -15.5°
Drops below altitude 10° 00:23:07 10° 32° (NNE) 2,147 7.6 -15.3°
Sets 00:25:28 0° 28° (NNE) 3,067 8.8 -15.2°
